Regional Weather Roundup
Issued by NWS

Home | Current Version | Previous Version | Graphics & Text | Print | Product List | Glossary On
Versions: 1 2 3 4 5 6 7 8 9 10 11 12 13 14 15 16 17 18 19 20 21 22 23 24 25 26 27 28 29 30 31 32 33 34 35 36 37 38 39 40 41 42 43 44 45 46 47 48 49 50
000
ASUS43 KFSD 120902
RWRSD

WEATHER ROUNDUP FOR SOUTH DAKOTA
NATIONAL WEATHER SERVICE SIOUX FALLS SD
400 AM CDT SAT JUL 12 2014

NOTE: "FAIR" INDICATES FEW OR NO CLOUDS BELOW 12,000 FEET WITH NO
SIGNIFICANT WEATHER AND/OR OBSTRUCTIONS TO VISIBILITY.


SDZ001>005-009-010-012>017-121000-
NORTHWEST AND NORTH CENTRAL SOUTH DAKOTA

CITY           SKY/WX    TMP DP  RH WIND       PRES   REMARKS
BUFFALO          N/A     61  58  90 E14       30.04F
FAITH            N/A     63  60  90 E17       30.09F
MOBRIDGE       CLOUDY    67  59  75 NE8       30.03S
$$

SDZ012>016-024>037-041>051-057-063-072>074-121000-
SOUTHWEST AND SOUTH CENTRAL SOUTH DAKOTA

CITY           SKY/WX    TMP DP  RH WIND       PRES   REMARKS
RAPID CTY ARPT MOCLDY    62  58  86 CALM      30.10F
PIERRE         CLOUDY    70  64  81 NE7       30.00F
CUSTER         MOCLDY    56  54  93 CALM      30.22F
ELLSWORTH AFB  MOCLDY    65  58  77 W3        30.11F
PHILIP         MOCLDY    66  62  87 W8        30.05S
PINE RIDGE     CLOUDY    64  59  83 N5        30.12R
WINNER         CLOUDY    71  67  87 CALM      30.02F
$$

SDZ004>011-016>023-039-040-121000-
NORTHEAST SOUTH DAKOTA

CITY           SKY/WX    TMP DP  RH WIND       PRES   REMARKS
ABERDEEN       CLOUDY    67  58  72 NE9       30.04S
WATERTOWN      CLOUDY    70  57  63 NE12      30.04R
SISSETON         N/A     66  62  87 NW7       30.03R
$$

SDZ017-020-022-023-036>040-048>070-121000-
SOUTHEAST SOUTH DAKOTA

CITY           SKY/WX    TMP DP  RH WIND       PRES   REMARKS
SIOUX FALLS    CLOUDY    73  71  93 SW7       30.04S
HURON          TSTM      75  72  90 VRB3      29.97F
CHAMBERLAIN    LGT RAIN  70  66  89 NE5       29.99S
MITCHELL       CLOUDY    75  73  93 S9        29.99F
YANKTON        CLOUDY    70  68  94 S6        30.03F
$$

ABBREVIATIONS USED IN REMARKS
   TC - TEMPERATURE IN CELSIUS
  WCI - WIND CHILL INDEX
   HX - HEAT INDEX
  VSB - VISIBILITY




USA.gov is the U.S. government's official web portal to all federal, state and local government web resources and services.